493  
ASUS44 KLIX 141906  
RWRLA  
LOUISIANA WEATHER ROUNDUP  
NATIONAL WEATHER SERVICE NEW ORLEANS LA  
200 PM CDT TUE AUG 14 2018  
 
NOTE: "FAIR" INDICATES FEW OR NO CLOUDS BELOW 12,000 FEET WITH NO  
SIGNIFICANT WEATHER AND/OR S TO VISIBILITY
.  
SKY/WX - SKY CONDITION AND SIGNIFICANT WEATHER.  
TMP - AIR TEMPERATURE. DP - DEWPOINT TEMPERATURE.  
RH - RELATIVE HUMIDITY. PRES - PRESSURE.  
HX - HEAT INDEX. WCI - WIND CHILL INDEX.  
 
* THESE STATIONS ARE NOT NWS OR FAA STATIONS AND ARE NOT UNDER  
NWS QUALITY CONTROL.  
 
LAZ040-048-061>063-065-066-069-142000-  
SOUTHEAST LOUISIANA  
 
CITY SKY/WX TMP DP RH WIND PRES REMARKS
 
N.O. INTL ARPT PTSUNNY 94 72 48 NW8 30.03S HX 102  
N.O. LAKEFRONT FAIR 91 76 61 NW6 30.03F HX 103  
N.O. DOWNTOWN* FAIR 92 70 48 VRB6 30.04S HX 97  
RESERVE* N/A 94 72 48 N3 30.03S HX 101  
SLIDELL FAIR 94 69 44 N9 30.01F HX 99  
BATON ROUGE FAIR 91 73 55 W5 30.02F HAZE HX 99  
BOOTHVILLE FAIR 93 73 52 NE6 30.04S HX 102  
BELLE CHASSE PTSUNNY 91 78 65 E6 30.02S HX 106  
BOGALUSA* FAIR 94 69 43 SE5 30.03F HX 99  
GALLIANO* FAIR 97 70 41 SE5 30.03S HX 103  
NEW ROADS* N/A 90 73 57 CALM 30.03F HX 98  
GONZALES* MOCLDY 96 73 48 SW5 30.02F HX 106  
HAMMOND* FAIR 91 72 52 N3 30.02F HX 98  
HOUMA* MOSUNNY 93 73 52 CALM 30.03 HX 102  
PORT FOURCHON* CLEAR 88 75 66 VRB5 30.04F HX 97  
 

 
 
LAZ041-044-053-054-142000-  
SOUTHWEST LOUISIANA  
 
CITY SKY/WX TMP DP RH WIND PRES REMARKS
 
LAKE CHARLES FAIR 92 72 51 SW13 30.03F HX 99  
LAFAYETTE PTSUNNY 93 74 53 W5 30.03S HX 103  
PATTERSON FAIR 89 78 70 W6 30.04S HX 103  
SALT POINT N/A N/A N/A N/A VRB3 30.02S  
NEW IBERIA FAIR 92 73 53 SW8 30.04S HX 100  
CHENAULT AIRPK PTSUNNY 91 73 55 SW8 30.03F HX 100  
 

 
 
LAZ027-028-142000-  
CENTRAL LOUISIANA  
 
CITY SKY/WX TMP DP RH WIND PRES REMARKS
 
FORT POLK PTSUNNY 91 71 52 W8 30.02F HX 96  
ALEXANDRIA INT FAIR 93 70 46 SW7 30.01F HAZE HX 99  
ALEXANDRIA FAIR 93 73 52 VRB7 30.03F HX 102  
 

 
 
LAZ001-002-142000-  
NORTHWEST LOUISIANA  
 
CITY SKY/WX TMP DP RH WIND PRES REMARKS
 
SHREVEPORT CLOUDY 93 68 43 SW8 30.00F HX 97  
BARKSDALE AFB FAIR 92 69 47 S8 30.00F HX 97  
DTN SHREVEPORT FAIR 94 70 45 SW8 30.00F HX 100  
 

 
 
LAZ014-016-142000-  
NORTHEAST LOUISIANA  
 
CITY SKY/WX TMP DP RH WIND PRES REMARKS
 
MONROE FAIR 93 69 45 W6 30.02F HX 98  
TALLULAH FAIR 91 75 59 VRB5 30.03F HX 101  
 

 
 
 
 
CLICK HERE TO GO TO PREVIOUS BULLETINS.

The Nexlab LA Page Main Text Page